Regional Weather Roundup
Issued by NWS

Home | Current Version | Previous Version | Graphics & Text | Print | Product List | Glossary On
Versions: 1 2 3 4 5 6 7 8 9 10 11 12 13 14 15 16 17 18 19 20 21 22 23 24 25 26 27 28 29 30 31 32 33 34 35 36 37 38 39 40 41 42 43 44
000
ASUS45 KSLC 261210
RWRUT

UTAH REGIONAL WEATHER ROUNDUP
NATIONAL WEATHER SERVICE SALT LAKE CITY UT
500 AM MST FRI DEC 26 2014

UTZ001>011-023>025-261300-

NORTHERN UTAH

CITY           SKY/WX    TMP DP  RH WIND       PRES   REMARKS
BRIGHAM CITY   CLOUDY    25  17  70 SW3       29.93R
HILL AFB       MOCLDY    25  15  66 CALM      29.88R
LOGAN          LGT SNOW  20  17  88 CALM      29.94R FOG
OGDEN          CLOUDY    26  16  65 NE10      29.88S WCI  16
PROVO AIRPORT  MOCLDY    25  19  80 N5        29.86R WCI  19
SALT LAKE CITY MOCLDY    25  21  85 VRB6      29.89R WCI  18
VERNAL         CLOUDY    23  11  60 E9        29.79R WCI  13
WENDOVER       MOCLDY    27  12  54 NW23G29   29.98R WCI  12
HEBER CITY     CLOUDY    21  12  68 E9        29.82R WCI  11
WEST JORDAN    PTCLDY    21  21 100 NW10      29.88R WCI  10

$$

UTZ012>022-026-027-261300-

SOUTHERN/CENTRAL UTAH

CITY           SKY/WX    TMP DP  RH WIND       PRES   REMARKS
BLANDING       PTCLDY    17  14  89 NW5       29.78R WCI  10
BRYCE CANYON   MOCLDY    11   6  81 NW9       29.74R WCI  -2
CEDAR CITY     PTCLDY    16  13  88 NE6       29.84S WCI   7
DELTA          CLOUDY    24  19  82 NW14G24   29.88R WCI  12
MILFORD        LGT SNOW  24  21  88 N10       29.88R FOG     WCI  14
MOAB/CYNLANDS  LGT SNOW  26  25  96 NW8       29.75R FOG     WCI  18
PRICE          PTCLDY    20   9  62 N8        29.73R WCI  10
ST GEORGE      MOSUNNY   30  18  59 S5        29.93R WCI  25
KANAB          MOCLDY    19  19 100 CALM      29.87R

$$

REGIONAL REPORTS     COLORADO/ARIZONA

CITY           SKY/WX    TMP DP  RH WIND       PRES   REMARKS
CRAIG, CO      LGT SNOW  18  13  80 W10       29.74R WCI   6
GRAND JUNCTION LGT SNOW  25  24  96 CALM      29.75R FOG
RIFLE          FLURRIES  23  20  88 CALM      29.73R
MONTROSE       CLOUDY    24  22  91 N5        29.74R WCI  18
CORTEZ         SNOW      22  20  92 E8        29.71S VSB 1/2 WCI  12
PAGE, AZ       CLOUDY    32  14  47 W3        29.79R
GRAND CANYON   MOCLDY    19  15  84 CALM      29.77S
KINGMAN        CLEAR     28  14  55 SE3       29.91R
FLAGSTAFF      MOCLDY    17  11  77 VRB7      29.74R WCI   8

$$

REGIONAL REPORTS    NEVADA/IDAHO/WYOMING

CITY           SKY/WX    TMP DP  RH WIND       PRES   REMARKS
LAS VEGAS, NV  CLEAR     43   9  24 NW20G30   29.93R
ELY            CLOUDY    18  13  80 NW7       29.94R WCI   9
ELKO           CLOUDY    24  17  74 SW3       30.04S
POCATELLO, ID  CLEAR      6   2  83 CALM      30.00R
BURLEY         CLOUDY    22  15  75 SW7       29.99S WCI  13
EVANSTON, WY   CLOUDY    14   9  80 NE6       29.80R WCI   5
ROCK SPRINGS   CLOUDY    12   8  84 NE7       29.81R WCI   1

$$



USA.gov is the U.S. government's official web portal to all federal, state and local government web resources and services.